Lapse_Rate
6.5 6.4 6.4 6.4 6.5 6.5 6.4 6.3 6.2 6.1 6.1 6.0 5.9 5.8 5.9 5.8 5.8 5.8 6.0 5.9 5.9 6.0 6.2 6.3 6.2 6.2 6.2 6.1 5.9 5.7 5.8 5.7 5.7
6.6 6.4 6.4 6.5 6.4 6.3 6.3 6.2 6.1 6.1 6.1 5.9 5.8 5.8 5.8 5.7 5.7 5.8 6.1 6.1 6.0 6.1 6.3 6.4 6.5 6.6 6.6 6.4 6.3 6.2 5.9 5.8 5.9
6.6 6.4 6.4 6.3 6.3 6.2 6.1 6.1 6.0 6.0 6.0 6.0 5.9 5.9 5.8 5.8 6.0 6.2 6.4 6.4 6.5 6.4 6.5 6.8 7.0 7.0 7.0 6.8 6.6 6.5 6.3 6.1 6.0
6.5 6.5 6.4 6.2 6.1 6.1 6.0 6.0 6.0 5.9 5.9 6.0 6.0 6.0 5.9 5.8 6.0 6.4 6.4 6.4 6.5 6.7 6.9 7.0 7.2 7.2 7.0 6.8 6.6 6.4 6.3 6.2 6.1
6.5 6.4 6.3 6.1 6.1 6.1 6.0 6.0 5.9 5.8 5.8 5.8 6.0 6.0 5.8 5.8 6.2 6.3 6.2 6.2 6.2 6.3 6.5 6.7 6.9 7.0 7.0 6.8 6.7 6.5 6.4 6.2 6.2
6.4 6.3 6.2 6.1 6.1 6.1 6.0 6.0 6.0 5.9 5.8 5.8 5.7 5.7 5.7 5.8 5.9 6.1 6.0 6.0 6.0 6.1 6.2 6.3 6.4 6.7 6.8 6.6 6.6 6.6 6.4 6.2 6.2
6.3 6.2 6.3 6.3 6.1 5.9 5.9 6.0 6.0 6.1 6.0 6.0 5.9 5.8 5.6 5.5 5.9 6.0 6.0 5.9 5.9 5.9 6.0 6.2 6.3 6.4 6.4 6.4 6.5 6.5 6.3 6.2 6.3
6.3 6.3 6.3 6.2 6.0 5.9 6.0 6.1 6.1 6.2 6.1 6.1 5.9 5.9 5.6 5.5 5.7 5.9 5.9 5.9 5.9 5.8 5.9 6.0 6.1 6.2 6.2 6.3 6.4 6.2 6.3 6.3 6.2
6.4 6.2 6.1 6.1 6.1 6.0 6.0 6.0 6.0 6.2 6.1 6.1 6.0 5.9 5.8 5.6 5.6 5.5 5.6 5.7 5.8 5.9 6.0 5.8 5.9 6.0 6.0 6.3 6.3 6.3 6.3 6.4 6.4
6.3 6.2 6.1 6.0 6.1 6.1 6.0 6.0 6.0 6.2 6.1 6.1 6.1 6.0 5.9 5.8 5.7 5.5 5.4 5.5 5.7 5.9 6.0 5.8 5.8 5.9 6.0 6.0 6.1 6.0 6.0 6.0 6.1
6.3 6.1 6.0 5.9 6.1 6.1 6.1 6.0 6.1 6.2 6.2 6.1 6.1 6.1 5.9 5.8 5.7 5.5 5.4 5.6 5.7 5.8 5.9 5.8 5.8 5.7 5.8 5.9 5.9 5.9 6.0 6.0 6.1
6.2 6.0 5.9 5.9 6.0 6.1 6.2 6.2 6.1 6.3 6.2 6.2 6.2 6.1 6.1 6.0 5.9 5.6 5.6 5.6 5.7 5.8 5.9 5.8 5.8 5.8 5.7 5.8 5.8 5.9 5.9 6.0 6.0
6.1 6.0 5.9 5.9 6.0 6.1 6.1 6.2 6.1 6.1 6.2 6.4 6.4 6.3 6.1 6.0 5.9 5.8 5.6 5.6 5.6 5.7 5.8 5.8 5.7 5.8 5.8 5.7 5.8 5.8 5.8 5.9 6.1
6.1 5.9 5.8 5.8 6.0 6.1 6.1 6.1 6.1 6.1 6.3 6.4 6.4 6.4 6.2 6.2 6.1 6.0 5.9 5.9 5.8 5.8 5.6 5.5 5.6 5.7 5.8 5.7 5.7 5.8 5.9 5.9 6.0
6.0 5.8 5.8 5.8 5.9 6.0 6.1 6.1 6.0 5.9 6.2 6.3 6.4 6.3 6.3 6.1 6.1 6.1 6.0 6.0 5.9 5.8 5.6 5.4 5.4 5.5 5.6 5.6 5.6 5.6 5.7 5.8 6.0
5.9 5.8 5.8 5.8 5.8 5.9 6.0 6.0 6.0 6.0 6.2 6.3 6.3 6.3 6.3 6.2 6.1 6.0 6.0 5.9 5.9 5.9 5.8 5.6 5.5 5.4 5.5 5.5 5.5 5.6 5.6 5.6 5.8
5.9 5.8 5.8 5.7 5.7 5.8 5.9 6.0 6.0 5.9 6.2 6.2 6.2 6.2 6.1 6.0 6.0 5.9 6.0 6.0 6.0 5.9 5.8 5.7 5.6 5.5 5.5 5.5 5.4 5.4 5.5 5.6 5.7
5.9 5.8 5.7 5.7 5.7 5.8 5.9 5.9 6.0 6.0 6.2 6.2 6.1 6.1 6.0 5.9 5.9 5.9 5.9 5.8 5.8 5.9 5.8 5.7 5.6 5.5 5.4 5.3 5.3 5.3 5.3 5.3 5.3
5.8 5.7 5.7 5.7 5.7 5.8 5.8 5.8 5.8 5.8 5.9 5.9 6.0 5.9 5.9 5.9 5.7 5.7 5.6 5.7 5.6 5.6 5.6 5.5 5.5 5.4 5.4 5.3 5.2 5.2 5.2 5.2 5.2
5.7 5.7 5.7 5.7 5.7 5.7 5.6 5.6 5.6 5.6 5.6 5.7 5.8 5.8 5.8 5.7 5.7 5.4 5.4 5.5 5.4 5.3 5.2 5.3 5.2 5.2 5.2 5.2 5.1 5.1 5.1 5.2 5.2
Wind_Speed
10 10 10 10 10 10 11 11 11 11 11 11 12 13 13 11 11 9 11 10 9 9 10 10 10 9 9 9 9 9 10 9 8
9 9 9 10 10 11 11 12 11 11 11 11 11 11 11 10 9 9 9 9 8 8 10 10 10 9 9 8 8 9 10 10 8
9 9 9 10 11 11 12 12 11 12 12 13 12 11 11 10 7 6 7 8 7 8 8 7 8 8 8 8 8 8 10 10 10
8 9 9 10 11 10 11 12 12 12 13 12 12 11 10 10 8 6 5 7 8 8 7 7 6 5 6 7 7 8 9 9 10
6 6 8 9 10 10 11 11 12 12 12 13 13 11 11 10 9 5 5 8 10 8 6 6 6 6 5 6 8 8 8 9 10
2 5 7 8 9 11 11 12 12 12 12 12 11 10 9 8 7 5 8 10 9 7 6 5 5 5 5 5 6 6 8 9 10
2 5 7 8 9 11 12 13 13 14 12 13 12 9 7 7 6 5 9 10 8 7 6 5 5 5 4 5 5 7 7 8 9
7 7 7 8 10 12 12 13 13 12 12 13 11 9 7 6 6 7 9 10 10 11 10 10 8 8 8 8 6 7 7 8 8
5 6 6 7 8 8 9 9 10 12 11 11 10 9 9 6 6 7 8 10 11 12 13 11 11 9 8 7 9 11 9 8 8
4 4 6 6 7 7 7 8 8 9 11 10 9 9 9 6 7 8 9 10 11 11 11 10 10 9 9 11 10 11 12 10 8
4 4 5 5 6 5 6 5 5 5 6 6 9 7 8 8 9 9 9 10 11 10 10 10 11 12 10 12 13 11 11 12 9
5 4 3 4 4 5 7 8 7 5 6 5 5 5 6 6 7 8 9 9 11 12 10 10 11 12 13 12 13 14 13 12 9
5 3 3 4 6 6 4 3 3 3 4 3 3 3 4 5 5 6 7 8 9 10 12 10 10 12 13 13 13 14 10 9 9
6 4 3 4 5 5 3 3 2 3 4 3 3 2 2 3 4 5 6 7 8 9 10 10 10 10 12 13 15 18 10 8 7
6 5 4 4 3 3 3 3 3 1 3 2 3 3 2 2 2 2 4 6 7 8 9 9 9 9 10 12 15 16 17 12 11
5 4 4 4 3 2 2 1 4 4 4 2 3 2 3 3 3 3 3 5 6 7 9 9 8 7 8 11 13 14 15 16 15
5 5 3 3 2 3 3 4 2 2 4 2 2 3 3 3 3 2 3 4 6 6 8 9 8 5 5 8 11 13 15 15 15
5 5 4 4 3 2 1 2 4 2 2 5 3 2 1 3 3 3 3 5 4 4 6 7 7 4 3 6 9 11 12 13 14
5 5 4 4 2 2 1 2 2 2 2 2 3 3 2 1 4 2 3 5 5 4 3 6 6 3 2 5 9 11 11 13 14
3 4 4 3 2 2 2 2 2 1 2 1 1 2 2 2 1 3 4 4 3 3 3 7 4 3 3 5 7 9 11 13 13
Wind_Direction
69 57 51 48 46 38 33 29 25 22 21 20 18 17 15 13 10 10 2 5 1 6 7 2 355 353 349 349 350 3 351 335 324
71 60 53 46 44 41 38 37 35 31 22 18 20 21 19 21 15 5 1 360 12 10 4 360 356 350 348 346 348 351 348 355 329
69 59 55 48 48 41 38 33 27 23 18 19 18 16 18 16 14 10 3 345 6 1 356 352 351 349 348 348 351 348 346 346 340
68 60 55 51 43 35 31 23 24 21 16 14 14 18 23 20 14 22 20 342 357 351 348 346 345 348 348 346 351 353 348 343 337
61 52 42 40 35 36 32 28 26 20 17 14 13 22 24 12 13 30 1 4 356 360 0 350 345 346 352 358 355 359 356 355 339
66 29 28 31 39 35 33 31 28 21 13 15 16 22 21 16 15 19 13 9 12 14 11 5 355 353 354 13 359 351 352 352 351
61 51 44 43 36 35 32 29 27 24 18 13 11 22 19 27 11 14 21 17 23 25 29 25 15 1 24 357 343 341 341 339 345
68 61 48 41 29 29 28 26 25 24 19 14 14 21 26 23 22 23 28 23 22 33 51 45 44 38 30 6 4 4 341 339 338
68 63 56 47 28 28 25 26 21 22 21 22 21 20 22 13 29 34 38 33 33 29 24 26 23 18 12 356 356 337 319 314 316
84 67 59 50 30 25 24 25 24 21 13 17 25 25 21 42 42 58 50 39 36 30 31 29 22 13 4 21 17 7 3 346 326
95 79 64 49 33 24 31 26 24 21 13 10 18 26 42 63 54 55 49 44 36 29 27 31 30 21 3 352 15 17 6 353 346
99 91 74 53 30 27 25 22 25 25 11 8 9 26 36 56 50 48 47 44 41 33 33 26 25 18 13 6 359 358 11 15 27
104 98 76 54 43 36 33 18 9 9 11 354 349 9 41 60 57 47 46 36 35 27 28 26 24 14 13 8 8 12 28 29 34
112 100 85 69 62 40 16 23 44 7 351 355 3 350 43 40 51 46 35 31 32 24 12 18 15 13 13 13 2 13 31 32 19
110 98 90 81 67 35 19 39 10 25 337 355 25 351 3 50 46 24 21 25 25 18 12 10 4 3 15 14 11 4 15 34 37
110 103 94 81 75 60 17 35 31 7 344 32 5 0 354 22 343 3 21 9 3 10 12 10 3 356 8 11 13 9 3 7 13
121 116 104 106 102 56 38 43 22 10 11 81 82 16 335 349 7 351 352 359 342 352 359 4 1 359 359 4 13 12 6 2 3
132 125 125 122 114 110 87 66 62 26 357 40 114 36 308 328 326 348 340 350 340 329 335 354 355 348 357 360 2 7 4 359 356
145 136 133 129 129 125 128 99 85 86 26 352 42 68 127 20 333 331 330 327 332 313 311 335 332 347 347 347 347 354 357 353 352
154 141 136 138 147 142 136 109 106 106 123 95 11 38 53 95 123 296 320 331 312 304 297 303 288 312 315 329 337 344 348 348 345